DW4558 Weather Reports


time (UTC)temp
C
wind
direction
speed
KPH
gust
KPH
rain 1hr
cm
rain 24hr
cm
rain mn
cm
humidity
%
barometer
mb
20260507104611 5 257 14.5 22.5 0.00 1.40 0.00 94 1003.7
20260507103113 5 235 11.3 17.7 0.00 1.40 0.00 94 1003.7
20260507101557 5 251 9.7 17.7 0.00 1.40 0.00 94 1003.7
20260507100056 5 273 8.0 19.3 0.00 1.40 0.00 95 1003.5
20260507094554 5 268 8.0 22.5 0.00 1.40 0.00 95 1003.4
20260507093058 4 203 9.7 25.7 0.00 1.40 0.00 95 1003.4
20260507091554 4 240 12.9 22.5 0.00 1.40 0.00 95 1003.6
20260507090048 4 244 12.9 22.5 0.00 1.40 0.00 95 1003.7
20260507084547 4 252 12.9 25.7 0.00 1.40 0.00 95 1003.9
20260507083044 5 229 12.9 22.5 0.00 1.40 0.00 95 1004.0
20260507081543 5 248 16.1 24.1 0.00 1.40 0.00 95 1003.8
20260507080044 5 233 11.3 22.5 0.00 1.40 0.00 96 1004.0
20260507074539 5 254 9.7 19.3 0.00 1.40 0.00 96 1004.0
20260507073039 5 227 12.9 24.1 0.00 1.40 0.00 96 1004.1
20260507071539 5 242 14.5 27.4 0.00 1.40 0.00 96 1003.9
20260507070036 5 259 12.9 25.7 0.00 1.40 0.00 97 1003.9
20260507064534 5 248 12.9 27.4 0.00 1.40 0.00 97 1003.9
20260507063042 5 238 14.5 24.1 0.00 1.40 0.00 97 1004.0
20260507061533 5 244 11.3 22.5 0.00 1.40 0.00 97 1004.1
20260507060046 5 237 16.1 25.7 0.00 1.40 0.00 97 1004.1
20260507054538 5 246 14.5 22.5 0.00 1.40 0.00 97 1004.3
20260507053028 5 264 12.9 30.6 0.00 1.40 0.00 97 1004.4
20260507051526 5 258 14.5 24.1 0.00 1.40 0.00 97 1004.5
20260507050024 5 236 11.3 22.5 0.00 1.40 0.00 97 1004.4
20260507044540 5 272 8.0 19.3 0.00 1.40 0.00 97 1004.6
20260507043017 5 254 12.9 17.7 0.00 1.40 0.00 97 1004.6
20260507041514 5 240 8.0 22.5 0.00 1.40 0.00 97 1004.6
20260507040011 5 248 12.9 24.1 0.00 1.40 0.00 97 1005.2
20260507034509 5 238 12.9 22.5 0.00 1.40 1.40 97 1005.3
20260507033008 5 253 9.7 16.1 0.00 1.40 1.40 97 1005.3
20260507031506 5 236 9.7 17.7 0.00 1.40 1.40 97 1005.5
20260507030005 5 252 9.7 17.7 0.00 1.40 1.40 97 1005.4
20260507024503 5 251 8.0 11.3 0.00 1.40 1.40 97 1005.3
20260507023003 5 237 6.4 9.7 0.00 1.40 1.40 97 1005.5
20260507021501 5 240 6.4 12.9 0.00 1.40 1.40 97 1005.5
20260507020104 5 249 3.2 8.0 0.00 1.40 1.40 97 1005.4
20260507014600 5 230 4.8 8.0 0.00 1.42 1.40 97 1005.4
20260507013103 5 246 3.2 12.9 0.00 1.42 1.40 97 1005.8
20260507011559 5 254 4.8 14.5 0.00 1.42 1.40 97 1005.9
20260507010057 5 236 6.4 14.5 0.00 1.42 1.40 97 1006.1
20260507004559 5 217 4.8 11.3 0.00 1.42 1.40 97 1006.3
20260507003055 6 219 4.8 9.7 0.00 1.42 1.40 97 1006.1
20260507001557 6 238 6.4 12.9 0.00 1.42 1.40 97 1006.3
20260507000055 6 243 6.4 9.7 0.00 1.42 1.40 97 1006.0
20260506234555 6 245 6.4 12.9 0.03 1.42 1.40 97 1006.2
20260506233054 6 233 4.8 11.3 0.05 1.42 1.40 97 1006.2
20260506231553 6 259 6.4 12.9 0.05 1.42 1.40 97 1006.1
20260506230055 6 243 3.2 8.0 0.05 1.42 1.40 97 1005.9
20260506224602 6 244 3.2 8.0 0.03 1.60 1.37 97 1006.0
20260506223052 6 290 3.2 11.3 0.00 1.57 1.37 97 1006.0
20260506221554 6 259 3.2 12.9 0.00 1.57 1.37 97 1006.1
20260506220051 6 286 8.0 12.9 0.03 1.57 1.37 97 1006.3
20260506214606 6 283 3.2 11.3 0.03 1.57 1.37 97 1006.2
20260506213050 6 290 3.2 11.3 0.03 1.57 1.37 97 1006.3
20260506211549 6 267 3.2 12.9 0.03 1.57 1.37 97 1006.4
20260506210052 6 283 8.0 9.7 0.00 1.55 1.35 97 1006.5
20260506204556 6 288 4.8 9.7 0.03 1.55 1.35 97 1006.4
20260506203051 6 291 9.7 14.5 0.03 1.55 1.35 97 1006.3
20260506201550 6 288 9.7 16.1 0.03 1.55 1.35 97 1006.4
20260506200047 6 272 11.3 16.1 0.05 1.55 1.35 97 1006.6
20260506194559 6 286 12.9 16.1 0.05 1.55 1.32 97 1006.7
20260506193049 6 269 14.5 19.3 0.10 1.55 1.32 97 1006.8
20260506191546 6 306 6.4 14.5 0.15 1.55 1.32 97 1006.8
20260506190045 6 271 8.0 16.1 0.18 1.52 1.30 97 1007.0
20260506184545 6 261 11.3 16.1 0.18 1.65 1.27 97 1007.1
20260506183044 6 284 12.9 19.3 0.18 1.63 1.22 97 1007.2
20260506181546 6 279 9.7 16.1 0.18 1.55 1.17 97 1007.4
20260506180047 6 261 8.0 16.1 0.18 1.52 1.12 97 1007.6
20260506174540 6 248 8.0 16.1 0.18 1.55 1.09 96 1007.6
20260506173042 6 270 14.5 19.3 0.20 1.52 1.04 96 1007.6
20260506171551 6 279 12.9 19.3 0.20 1.42 0.99 97 1007.7
20260506170040 6 261 9.7 19.3 0.23 1.42 0.94 96 1007.9
20260506164536 6 252 14.5 20.9 0.25 1.37 0.89 96 1008.0
20260506163042 6 273 9.7 19.3 0.25 1.32 0.84 96 1008.2
20260506161536 6 286 6.4 17.7 0.28 1.27 0.79 96 1008.2
20260506160033 6 235 11.3 20.9 0.28 1.19 0.71 96 1008.5
20260506154531 6 225 11.3 16.1 0.25 1.12 0.64 96 1008.7
20260506153032 6 291 14.5 24.1 0.23 1.04 0.56 96 1009.0
20260506151533 6 219 9.7 19.3 0.20 0.97 0.48 95 1008.6
20260506150025 6 249 17.7 29.0 0.18 0.91 0.43 95 1008.5
20260506144523 7 277 11.3 24.1 0.18 0.86 0.38 95 1008.5
20260506143022 7 237 17.7 27.4 0.15 0.79 0.33 95 1008.6
20260506141521 7 268 11.3 27.4 0.15 0.76 0.28 95 1008.5
20260506140022 7 254 16.1 25.7 0.15 0.71 0.23 94 1008.4
20260506134514 7 278 20.9 38.6 0.13 0.66 0.18 94 1008.2
20260506133018 8 255 14.5 29.0 0.13 0.61 0.15 94 1008.1
20260506131516 8 270 19.3 29.0 0.13 0.61 0.13 93 1007.8
20260506130006 8 254 19.3 29.0 0.08 0.56 0.08 92 1007.9
20260506124504 8 259 12.9 30.6 0.05 0.53 0.05 91 1008.0
20260506123003 8 261 14.5 33.8 0.03 0.51 0.03 89 1008.0
20260506121558 9 291 19.3 38.6 0.00 0.48 0.00 88 1007.9
20260506120055 10 229 19.3 29.0 0.00 0.48 0.00 87 1007.5
20260506114600 10 241 17.7 32.2 0.00 0.48 0.00 86 1007.4
20260506113058 10 216 12.9 30.6 0.00 0.48 0.00 86 1007.0
20260506111551 10 234 12.9 27.4 0.00 0.48 0.00 87 1006.8
20260506110048 9 248 20.9 32.2 0.00 0.48 0.00 86 1006.8